Paris, IL

10:05 AM CST on November 21, 2017 (GMT -0600)
Edgar County

Weather History for KPRG - April, 2014

Change the Weather History Date:

Monday, April 28, 2014

  Actual Average (KHUF) Record (KHUF)
Temperature  
Mean Temperature 64 °F -  
Max Temperature 72 °F 68 °F 84 °F (1981)
Min Temperature 55 °F 46 °F 28 °F (1988)
Degree Days  
Heating Degree Days 2    
Growing Degree Days 14 (Base 50)    
Moisture  
Dew Point 59 °F    
Average Humidity 86    
Maximum Humidity 99    
Minimum Humidity 67    
Precipitation  
Precipitation 0.64 in - - ()
Sea Level Pressure  
Sea Level Pressure 29.60 in    
Wind  
Wind Speed 12 mph (SSE)    
Max Wind Speed 30 mph    
Max Gust Speed 40 mph    
Visibility 8 miles    
Events Rain , Thunderstorm    
Averages and records for this station are not official NWS values.
T = Trace of Precipitation, MM = Missing Value Source: NWS Daily Summary

Daily Weather History Graph

Daily Weather History Graph

Search for Another Location

Airport or City:

Trip Planner

Search our weather history database for the weather conditions in past years. The results will help you decide how hot, cold, wet, or windy it might be!

Date:

Astronomy

Apr. 28, 2014 Rise Set
Actual Time 5:55 AM CDT 7:41 PM CDT
Civil Twilight 5:26 AM CDT 8:10 PM CDT
Nautical Twilight 4:51 AM CDT 8:46 PM CDT
Astronomical Twilight 4:13 AM CDT 9:23 PM CDT
Moon 5:32 AM CDT (4/28) 7:19 PM CDT (4/28)
Length of Visible Light 14h 44m
Length of Day
13h 46m
Waning Crescent, 0% of the Moon is Illuminated
Apr 28
Waning Crescent
Apr 29
New
May 6
First Quarter
May 14
Full
May 21
Last Quarter

Hourly Weather History & Observations

Time (CDT) Temp. Dew Point Humidity Pressure Visibility Wind Dir Wind Speed Gust Speed Precip Events Conditions
12:15 AM 63.1 °F 54.7 °F 74% 29.77 in 10.0 mi ESE 6.9 mph - N/A   Overcast
12:35 AM 62.6 °F 57.2 °F 82% 29.76 in 10.0 mi SE 6.9 mph - N/A   Overcast
12:55 AM 63.5 °F 59.9 °F 88% 29.74 in 10.0 mi ESE 8.1 mph - N/A Rain Light Rain
1:15 AM 63.5 °F 60.3 °F 89% 29.73 in 10.0 mi SE 6.9 mph - N/A Rain Light Rain
1:35 AM 62.8 °F 60.3 °F 91% 29.74 in 10.0 mi SSE 9.2 mph - 0.01 in Rain Rain
1:55 AM 62.8 °F 60.6 °F 93% 29.73 in 10.0 mi SSE 9.2 mph - 0.04 in Rain , Thunderstorm Rain
2:15 AM 62.6 °F 60.8 °F 94% 29.72 in 7.0 mi SSE 9.2 mph - 0.03 in Rain , Thunderstorm Thunderstorms and Rain
2:35 AM 62.2 °F 60.8 °F 95% 29.70 in 5.0 mi SSE 8.1 mph - 0.07 in Rain Rain
2:55 AM 62.1 °F 60.8 °F 96% 29.70 in 5.0 mi SE 9.2 mph - 0.13 in Rain , Thunderstorm Thunderstorms and Rain
3:15 AM 61.9 °F 60.8 °F 96% 29.68 in 5.0 mi SE 8.1 mph - 0.05 in Rain Rain
3:35 AM 61.7 °F 60.3 °F 95% 29.67 in 7.0 mi SE 10.4 mph 18.4 mph 0.10 in Rain Rain
3:55 AM 61.7 °F 60.4 °F 96% 29.66 in 5.0 mi ESE 6.9 mph - 0.14 in Rain Rain
4:15 AM 61.7 °F 60.3 °F 95% 29.65 in 5.0 mi East 6.9 mph - 0.04 in Rain Rain
4:35 AM 61.3 °F 60.3 °F 96% 29.65 in 5.0 mi ESE 8.1 mph - 0.08 in Rain Light Rain
4:55 AM 61.3 °F 60.3 °F 96% 29.64 in 5.0 mi East 9.2 mph - 0.09 in Rain , Thunderstorm Light Thunderstorms and Rain
5:15 AM 61.5 °F 60.6 °F 97% 29.63 in 5.0 mi East 11.5 mph 18.4 mph 0.02 in Rain Light Rain
5:35 AM 61.3 °F 60.4 °F 97% 29.65 in 5.0 mi ESE 8.1 mph - 0.02 in Rain Light Rain
5:55 AM 61.3 °F 60.4 °F 97% 29.67 in 5.0 mi ESE 4.6 mph - 0.03 in Rain Rain
6:15 AM 61.3 °F 60.4 °F 97% 29.68 in 7.0 mi Calm Calm - 0.01 in Rain Light Rain
6:35 AM 61.2 °F 60.3 °F 97% 29.70 in 4.0 mi Calm Calm - 0.04 in Rain Rain
6:55 AM 61.0 °F 60.3 °F 97% 29.72 in 2.0 mi SW 3.5 mph - 0.08 in Rain Light Rain
7:15 AM 60.8 °F 59.9 °F 97% 29.70 in 4.0 mi Calm Calm - 0.02 in Rain Light Rain
7:35 AM 60.4 °F 59.9 °F 98% 29.68 in 2.0 mi East 5.8 mph - 0.02 in Rain Light Rain
7:55 AM 59.9 °F 59.4 °F 98% 29.59 in 1.8 mi East 15.0 mph - 0.02 in   Overcast
8:15 AM 59.7 °F 59.2 °F 98% 29.52 in 1.5 mi East 16.1 mph 25.3 mph N/A   Overcast
8:55 AM 59.4 °F 59.0 °F 99% 29.53 in 0.8 mi ESE 13.8 mph 19.6 mph N/A   Overcast
9:15 AM 60.1 °F 59.5 °F 98% 29.55 in 0.8 mi ESE 12.7 mph 20.7 mph N/A   Overcast
9:35 AM 60.8 °F 60.1 °F 97% 29.57 in 4.0 mi ESE 15.0 mph 21.9 mph N/A   Overcast
9:55 AM 61.7 °F 61.0 °F 97% 29.58 in 5.0 mi ESE 13.8 mph 19.6 mph N/A   Overcast
10:15 AM 63.7 °F 62.8 °F 97% 29.58 in 10.0 mi ESE 13.8 mph 19.6 mph N/A   Mostly Cloudy
10:35 AM 64.0 °F 61.9 °F 93% 29.58 in 10.0 mi ESE 9.2 mph - N/A   Scattered Clouds
10:55 AM 65.8 °F 63.1 °F 91% 29.58 in 10.0 mi ESE 5.8 mph - N/A   Clear
11:15 AM 67.3 °F 63.7 °F 88% 29.58 in 10.0 mi SE 8.1 mph - N/A   Clear
11:35 AM 69.8 °F 62.1 °F 76% 29.60 in 10.0 mi South 17.3 mph - N/A   Clear
12:15 PM 70.5 °F 60.4 °F 70% 29.60 in 10.0 mi South 23.0 mph 31.1 mph N/A   Scattered Clouds
12:35 PM 70.7 °F 60.8 °F 71% 29.59 in 10.0 mi South 21.9 mph 32.2 mph N/A   Clear
12:55 PM 71.1 °F 61.2 °F 71% 29.58 in 10.0 mi South 18.4 mph 29.9 mph N/A   Clear
1:15 PM 71.2 °F 60.8 °F 69% 29.60 in 10.0 mi South 21.9 mph 26.5 mph N/A   Clear
1:35 PM 72.3 °F 61.7 °F 69% 29.61 in 10.0 mi South 27.6 mph 36.8 mph N/A   Scattered Clouds
1:55 PM 70.7 °F 60.4 °F 70% 29.58 in 10.0 mi SSE 28.8 mph 40.3 mph N/A   Scattered Clouds
2:15 PM 69.8 °F 60.3 °F 72% 29.57 in 10.0 mi South 29.9 mph 36.8 mph N/A   Clear
2:35 PM 69.8 °F 60.4 °F 72% 29.57 in 10.0 mi South 25.3 mph 40.3 mph N/A   Clear
2:55 PM 70.3 °F 61.0 °F 72% 29.56 in 10.0 mi South 28.8 mph 33.4 mph N/A   Scattered Clouds
3:15 PM 70.9 °F 61.3 °F 72% 29.56 in 10.0 mi South 26.5 mph 33.4 mph N/A   Clear
3:30 PM 70.7 °F 61.0 °F 71% 29.53 in 10.0 mi SSE 25.3 mph 31.1 mph N/A   Clear
4:15 PM 71.1 °F 60.1 °F 68% 29.53 in 10.0 mi South 26.5 mph 32.2 mph N/A   Clear
4:35 PM 70.3 °F 59.0 °F 67% 29.52 in 10.0 mi South 24.2 mph 38.0 mph N/A   Clear
4:55 PM 70.7 °F 59.2 °F 67% 29.50 in 10.0 mi South 28.8 mph 35.7 mph N/A   Clear
5:15 PM 69.8 °F 59.5 °F 70% 29.50 in 10.0 mi SSE 21.9 mph 34.5 mph N/A   Clear
5:35 PM 69.1 °F 59.5 °F 72% 29.52 in 10.0 mi South 25.3 mph 33.4 mph N/A   Clear
5:55 PM 68.2 °F 59.5 °F 74% 29.53 in 10.0 mi South 25.3 mph 29.9 mph N/A   Scattered Clouds
6:15 PM 67.6 °F 59.2 °F 74% 29.52 in 10.0 mi SSE 21.9 mph 26.5 mph N/A   Mostly Cloudy
6:35 PM 66.2 °F 59.4 °F 79% 29.51 in 10.0 mi SSE 17.3 mph 27.6 mph N/A   Scattered Clouds
6:55 PM 65.7 °F 59.7 °F 81% 29.51 in 10.0 mi SE 16.1 mph - N/A   Scattered Clouds
7:15 PM 64.8 °F 59.4 °F 83% 29.51 in 10.0 mi SSE 17.3 mph 21.9 mph N/A   Overcast
7:35 PM 64.4 °F 59.0 °F 83% 29.50 in 10.0 mi SE 19.6 mph 26.5 mph N/A   Scattered Clouds
7:55 PM 63.7 °F 58.5 °F 83% 29.51 in 10.0 mi SSE 19.6 mph 26.5 mph N/A   Clear
8:15 PM 63.9 °F 58.5 °F 83% 29.51 in 10.0 mi SSE 18.4 mph 23.0 mph N/A   Scattered Clouds
8:35 PM 63.9 °F 58.5 °F 83% 29.53 in 10.0 mi SSE 16.1 mph 24.2 mph N/A   Scattered Clouds
8:55 PM 63.5 °F 58.3 °F 83% 29.53 in 10.0 mi SSE 18.4 mph - N/A   Clear
9:15 PM 63.0 °F 57.0 °F 81% 29.57 in 10.0 mi West 13.8 mph 17.3 mph N/A   Scattered Clouds
9:35 PM 60.8 °F 53.6 °F 77% 29.59 in 10.0 mi West 12.7 mph 18.4 mph N/A Rain Light Rain
9:55 PM 57.6 °F 54.7 °F 90% 29.60 in 7.0 mi West 13.8 mph - 0.03 in Rain Rain
10:15 PM 56.3 °F 54.7 °F 94% 29.60 in 7.0 mi West 9.2 mph - 0.04 in Rain Rain
10:35 PM 55.8 °F 54.5 °F 96% 29.60 in 10.0 mi West 4.6 mph - 0.04 in   Drizzle
10:55 PM 55.8 °F 54.5 °F 96% 29.59 in 10.0 mi West 5.8 mph - 0.05 in Rain Rain
11:15 PM 55.4 °F 54.1 °F 96% 29.58 in 10.0 mi Calm Calm - 0.02 in Rain Light Rain
11:35 PM 55.6 °F 54.1 °F 95% 29.58 in 10.0 mi Calm Calm - 0.02 in Rain Light Rain
11:55 PM 55.6 °F 54.1 °F 95% 29.57 in 10.0 mi Calm Calm - 0.03 in   Overcast